This is the latest recevied weather packets stored in our database for station/object OK2ZA-6. If no packets are shown the sender has not sent any weather packets the latest 10 day(s).
| Time | Temp. | Humidity | Pressure | Rain* | Wind** | Luminosity | Snow |
|---|---|---|---|---|---|---|---|
| 1788349804 | 23.89° C | 42% | 1020.7 hPa | 0 mm | - | - | - |
| 1788349204 | 23.89° C | 43% | 1020.9 hPa | 0 mm | - | - | - |
| 1788348604 | 23.89° C | 42% | 1020.9 hPa | 0 mm | - | - | - |
| 1788348004 | 23.33° C | 43% | 1021.1 hPa | 0 mm | - | - | - |
| 1788347404 | 23.33° C | 45% | 1021 hPa | 0 mm | - | - | - |
| 1788346804 | 23.33° C | 45% | 1021 hPa | 0 mm | - | - | - |
| 1788346204 | 23.33° C | 45% | 1021.1 hPa | 0 mm | - | - | - |
| 1788345604 | 23.33° C | 46% | 1021.2 hPa | 0 mm | - | - | - |
| 1788345004 | 23.33° C | 45% | 1021.4 hPa | 0 mm | - | - | - |
| 1788344404 | 23.33° C | 46% | 1021.4 hPa | 0 mm | - | - | - |
| 1788343804 | 22.78° C | 49% | 1021.6 hPa | 0 mm | - | - | - |
| 1788343204 | 22.78° C | 48% | 1021.7 hPa | 0 mm | - | - | - |
| 1788342604 | 22.78° C | 49% | 1021.7 hPa | 0 mm | - | - | - |
| 1788342004 | 22.78° C | 47% | 1021.7 hPa | 0 mm | - | - | - |
| 1788341404 | 23.33° C | 48% | 1021.8 hPa | 0 mm | - | - | - |
| 1788340804 | 22.78° C | 49% | 1021.8 hPa | 0 mm | - | - | - |
| 1788340204 | 22.22° C | 49% | 1022 hPa | 0 mm | - | - | - |
| 1788339604 | 21.67° C | 51% | 1022 hPa | 0 mm | - | - | - |
| 1788339004 | 21.67° C | 51% | 1022.1 hPa | 0 mm | - | - | - |
| 1788338404 | 21.67° C | 52% | 1022.2 hPa | 0 mm | - | - | - |
| 1788337804 | 21.67° C | 53% | 1022.2 hPa | 0 mm | - | - | - |
| 1788337204 | 21.11° C | 53% | 1022.2 hPa | 0 mm | - | - | - |
| 1788336604 | 21.11° C | 55% | 1022.1 hPa | 0 mm | - | - | - |
| 1788336004 | 20° C | 57% | 1022.2 hPa | 0 mm | - | - | - |
| 1788335404 | 20° C | 59% | 1022.2 hPa | 0 mm | - | - | - |
* Rain latest hour (hover to see other rain measurements)
** Current wind speed in m/s (hover to see current wind gust speed)